| time (UTC) | temp C | wind direction | speed KPH | gust KPH | rain 1hr cm | rain 24hr cm | rain mn cm | humidity % | barometer mb |
| 20260505050832 | 23 | 135 | 6.4 | 14.5 | 0.00 | 0.00 | 0.00 | 77 | 1017.9 |
| 20260505050333 | 23 | 125 | 6.4 | 14.5 | 0.00 | 0.00 | 0.00 | 77 | 1017.8 |
| 20260505041338 | 24 | 132 | 4.8 | 17.7 | 0.00 | 0.00 | 0.00 | 78 | 1017.8 |
| 20260505041332 | 24 | 59 | 0.0 | 17.7 | 0.00 | 0.00 | 0.00 | 78 | 1017.6 |
| 20260505040333 | 24 | 53 | 11.3 | 17.7 | 0.00 | 0.00 | 0.00 | 77 | 1017.5 |
| 20260505035332 | 25 | 111 | 8.0 | 22.5 | 0.00 | 0.00 | 0.00 | 78 | 1017.5 |
| 20260505034831 | 25 | 79 | 12.9 | 20.9 | 0.00 | 0.00 | 0.00 | 78 | 1017.5 |
| 20260505034332 | 25 | 124 | 6.4 | 20.9 | 0.00 | 0.03 | 0.00 | 77 | 1017.2 |
| 20260505034102 | 25 | 111 | 9.7 | 20.9 | 0.00 | 0.03 | 0.00 | 76 | 1017.2 |
| 20260505033331 | 25 | 96 | 9.7 | 22.5 | 0.00 | 0.03 | 0.00 | 74 | 1017.3 |
| 20260505032833 | 25 | 113 | 8.0 | 22.5 | 0.00 | 0.03 | 0.00 | 73 | 1017.2 |
| 20260505032332 | 26 | 57 | 0.0 | 16.1 | 0.00 | 0.03 | 0.00 | 74 | 1017.4 |
| 20260505031832 | 25 | 86 | 4.8 | 17.7 | 0.00 | 0.03 | 0.00 | 75 | 1017.4 |
| 20260505031332 | 25 | 123 | 1.6 | 17.7 | 0.00 | 0.03 | 0.00 | 74 | 1017.5 |
| 20260505030831 | 25 | 103 | 12.9 | 22.5 | 0.00 | 0.03 | 0.00 | 74 | 1017.5 |
| 20260505030332 | 25 | 94 | 3.2 | 22.5 | 0.00 | 0.03 | 0.00 | 76 | 1017.5 |
| 20260505025833 | 25 | 145 | 9.7 | 17.7 | 0.00 | 0.03 | 0.00 | 78 | 1017.3 |
| 20260505025604 | 25 | 119 | 8.0 | 17.7 | 0.00 | 0.03 | 0.00 | 78 | 1017.5 |
| 20260505025102 | 25 | 85 | 11.3 | 17.7 | 0.00 | 0.03 | 0.00 | 78 | 1017.6 |
| 20260505024331 | 25 | 83 | 1.6 | 16.1 | 0.00 | 0.03 | 0.00 | 78 | 1017.5 |
| 20260505023831 | 25 | 104 | 6.4 | 16.1 | 0.00 | 0.03 | 0.00 | 78 | 1017.5 |
| 20260505023332 | 25 | 105 | 4.8 | 20.9 | 0.00 | 0.03 | 0.00 | 78 | 1017.5 |
| 20260505022833 | 26 | 141 | 12.9 | 20.9 | 0.00 | 0.03 | 0.00 | 75 | 1017.7 |
| 20260505022332 | 26 | 94 | 3.2 | 24.1 | 0.00 | 0.03 | 0.00 | 74 | 1017.9 |
| 20260505021833 | 26 | 90 | 0.0 | 24.1 | 0.00 | 0.03 | 0.00 | 76 | 1017.7 |
| 20260505021332 | 26 | 78 | 8.0 | 24.1 | 0.00 | 0.03 | 0.00 | 76 | 1017.6 |
| 20260505020832 | 25 | 106 | 6.4 | 24.1 | 0.00 | 0.03 | 0.00 | 75 | 1018.0 |
| 20260505020332 | 25 | 121 | 8.0 | 22.5 | 0.00 | 0.03 | 0.00 | 75 | 1017.6 |
| 20260505015603 | 25 | 90 | 14.5 | 24.1 | 0.00 | 0.03 | 0.00 | 75 | 1017.8 |
| 20260505015102 | 25 | 71 | 9.7 | 24.1 | 0.00 | 0.03 | 0.00 | 76 | 1017.9 |
| 20260505014332 | 25 | 103 | 6.4 | 24.1 | 0.00 | 0.03 | 0.00 | 73 | 1017.7 |
| 20260505013831 | 25 | 96 | 11.3 | 24.1 | 0.00 | 0.03 | 0.00 | 74 | 1017.8 |
| 20260505013331 | 25 | 119 | 16.1 | 22.5 | 0.00 | 0.03 | 0.00 | 74 | 1017.7 |
| 20260505012833 | 26 | 120 | 0.0 | 22.5 | 0.00 | 0.03 | 0.00 | 72 | 1017.5 |
| 20260505012334 | 26 | 128 | 9.7 | 22.5 | 0.00 | 0.03 | 0.00 | 72 | 1017.3 |
| 20260505011831 | 26 | 124 | 14.5 | 20.9 | 0.00 | 0.03 | 0.00 | 71 | 1017.8 |
| 20260505011332 | 26 | 139 | 8.0 | 17.7 | 0.00 | 0.03 | 0.00 | 72 | 1018.0 |
| 20260505010831 | 26 | 69 | 6.4 | 17.7 | 0.00 | 0.03 | 0.00 | 70 | 1018.0 |
| 20260505010326 | 26 | 159 | 6.4 | 20.9 | 0.00 | 0.03 | 0.00 | 71 | 1018.2 |
| 20260505005820 | 26 | 131 | 8.0 | 20.9 | 0.00 | 0.03 | 0.00 | 72 | 1018.4 |
| 20260505005319 | 26 | 86 | 4.8 | 22.5 | 0.00 | 0.03 | 0.00 | 70 | 1018.4 |
| 20260505004820 | 27 | 110 | 14.5 | 25.7 | 0.00 | 0.03 | 0.00 | 69 | 1018.5 |
| 20260505004320 | 26 | 76 | 6.4 | 25.7 | 0.00 | 0.03 | 0.00 | 70 | 1018.2 |
| 20260505003820 | 26 | 160 | 8.0 | 24.1 | 0.00 | 0.03 | 0.00 | 73 | 1018.2 |
| 20260505003550 | 26 | 108 | 12.9 | 32.2 | 0.00 | 0.03 | 0.00 | 72 | 1018.5 |
| 20260505002820 | 26 | 104 | 17.7 | 32.2 | 0.00 | 0.03 | 0.00 | 73 | 1018.4 |
| 20260505002550 | 26 | 124 | 11.3 | 25.7 | 0.00 | 0.03 | 0.00 | 73 | 1018.4 |
| 20260505001819 | 26 | 107 | 12.9 | 25.7 | 0.00 | 0.03 | 0.00 | 75 | 1018.3 |
| 20260505001550 | 26 | 93 | 9.7 | 24.1 | 0.00 | 0.03 | 0.00 | 75 | 1018.5 |
| 20260505000820 | 26 | 116 | 9.7 | 24.1 | 0.00 | 0.05 | 0.00 | 72 | 1018.4 |
| 20260505000319 | 26 | 96 | 3.2 | 20.9 | 0.00 | 0.05 | 0.00 | 74 | 1018.5 |
| 20260504235819 | 27 | 97 | 8.0 | 17.7 | 0.00 | 0.05 | 0.00 | 71 | 1018.8 |
| 20260504235320 | 26 | 84 | 11.3 | 20.9 | 0.00 | 0.05 | 0.00 | 74 | 1018.6 |
| 20260504234820 | 26 | 118 | 1.6 | 20.9 | 0.00 | 0.05 | 0.00 | 71 | 1018.7 |
| 20260504234320 | 26 | 111 | 4.8 | 22.5 | 0.00 | 0.05 | 0.00 | 71 | 1019.0 |
| 20260504234051 | 26 | 124 | 14.5 | 24.1 | 0.00 | 0.05 | 0.00 | 71 | 1018.9 |
| 20260504233552 | 26 | 98 | 14.5 | 24.1 | 0.00 | 0.05 | 0.00 | 73 | 1018.9 |
| 20260504232820 | 26 | 101 | 6.4 | 25.7 | 0.00 | 0.05 | 0.00 | 74 | 1018.7 |
| 20260504232551 | 26 | 119 | 9.7 | 25.7 | 0.00 | 0.05 | 0.00 | 73 | 1018.7 |
| 20260504231819 | 26 | 132 | 4.8 | 25.7 | 0.00 | 0.05 | 0.00 | 75 | 1018.8 |
| 20260504231319 | 26 | 128 | 16.1 | 27.4 | 0.00 | 0.05 | 0.00 | 76 | 1018.7 |
| 20260504230820 | 26 | 119 | 11.3 | 27.4 | 0.00 | 0.05 | 0.00 | 74 | 1018.6 |
| 20260504230320 | 26 | 117 | 12.9 | 25.7 | 0.00 | 0.05 | 0.00 | 76 | 1018.9 |
| 20260504225820 | 25 | 142 | 8.0 | 25.7 | 0.00 | 0.05 | 0.00 | 76 | 1018.9 |
| 20260504225320 | 26 | 159 | 11.3 | 27.4 | 0.00 | 0.05 | 0.00 | 74 | 1019.0 |
| 20260504225051 | 26 | 71 | 0.0 | 27.4 | 0.00 | 0.05 | 0.00 | 74 | 1018.8 |
| 20260504224321 | 26 | 77 | 4.8 | 27.4 | 0.00 | 0.05 | 0.00 | 72 | 1018.9 |
| 20260504223820 | 27 | 83 | 8.0 | 27.4 | 0.00 | 0.05 | 0.00 | 72 | 1018.9 |
| 20260504223320 | 26 | 78 | 4.8 | 25.7 | 0.00 | 0.05 | 0.00 | 74 | 1018.9 |
| 20260504222821 | 26 | 138 | 9.7 | 25.7 | 0.00 | 0.05 | 0.00 | 73 | 1019.2 |
| 20260504222320 | 26 | 35 | 9.7 | 25.7 | 0.00 | 0.05 | 0.00 | 73 | 1019.0 |
| 20260504221821 | 26 | 103 | 12.9 | 25.7 | 0.00 | 0.05 | 0.00 | 71 | 1019.1 |
| 20260504221323 | 26 | 112 | 6.4 | 25.7 | 0.00 | 0.05 | 0.00 | 71 | 1019.2 |
| 20260504220820 | 26 | 75 | 9.7 | 24.1 | 0.00 | 0.05 | 0.00 | 72 | 1019.2 |
| 20260504220320 | 26 | 85 | 8.0 | 25.7 | 0.00 | 0.05 | 0.00 | 71 | 1019.2 |
| 20260504215820 | 26 | 98 | 9.7 | 25.7 | 0.00 | 0.05 | 0.00 | 72 | 1019.2 |
| 20260504215320 | 26 | 124 | 8.0 | 24.1 | 0.00 | 0.05 | 0.00 | 73 | 1019.1 |
| 20260504214820 | 26 | 82 | 8.0 | 27.4 | 0.00 | 0.05 | 0.00 | 72 | 1019.2 |
| 20260504214320 | 26 | 75 | 8.0 | 27.4 | 0.00 | 0.05 | 0.00 | 75 | 1019.6 |
| 20260504213820 | 26 | 105 | 12.9 | 30.6 | 0.00 | 0.05 | 0.00 | 73 | 1019.1 |
| 20260504213539 | 26 | 66 | 17.7 | 30.6 | 0.00 | 0.05 | 0.00 | 72 | 1019.3 |
| 20260504212807 | 26 | 114 | 4.8 | 24.1 | 0.00 | 0.05 | 0.00 | 73 | 1019.3 |
| 20260504212257 | 26 | 77 | 8.0 | 22.5 | 0.00 | 0.05 | 0.00 | 73 | 1019.5 |
| 20260504211758 | 26 | 78 | 12.9 | 25.7 | 0.00 | 0.05 | 0.00 | 73 | 1019.6 |
| 20260504211115 | 26 | 46 | 9.7 | 27.4 | 0.00 | 0.05 | 0.00 | 72 | 1019.4 |
| 20260504210615 | 26 | 92 | 3.2 | 25.7 | 0.00 | 0.05 | 0.00 | 71 | 1020.0 |
| 20260504210115 | 26 | 117 | 12.9 | 25.7 | 0.00 | 0.05 | 0.00 | 71 | 1019.7 |
| 20260504205615 | 26 | 94 | 11.3 | 25.7 | 0.00 | 0.05 | 0.00 | 71 | 1019.7 |
| 20260504205346 | 26 | 59 | 14.5 | 30.6 | 0.00 | 0.05 | 0.00 | 71 | 1019.7 |
| 20260504204614 | 26 | 80 | 9.7 | 30.6 | 0.00 | 0.05 | 0.00 | 71 | 1019.5 |
| 20260504204114 | 26 | 80 | 3.2 | 22.5 | 0.00 | 0.05 | 0.00 | 71 | 1019.6 |
| 20260504203614 | 26 | 100 | 9.7 | 20.9 | 0.00 | 0.05 | 0.00 | 70 | 1019.8 |
| 20260504203114 | 26 | 141 | 6.4 | 22.5 | 0.00 | 0.05 | 0.00 | 70 | 1019.7 |
| 20260504202614 | 26 | 79 | 12.9 | 22.5 | 0.00 | 0.05 | 0.00 | 71 | 1019.8 |
| 20260504202347 | 26 | 83 | 14.5 | 22.5 | 0.00 | 0.05 | 0.00 | 70 | 1019.7 |
| 20260504201614 | 26 | 126 | 14.5 | 27.4 | 0.00 | 0.05 | 0.00 | 71 | 1019.9 |
| 20260504201114 | 25 | 108 | 9.7 | 27.4 | 0.00 | 0.23 | 0.00 | 74 | 1019.7 |
| 20260504200614 | 25 | 59 | 12.9 | 25.7 | 0.00 | 0.38 | 0.00 | 72 | 1019.8 |
| 20260504200116 | 25 | 67 | 0.0 | 25.7 | 0.00 | 0.38 | 0.00 | 73 | 1019.8 |
| 20260504195847 | 26 | 91 | 8.0 | 25.7 | 0.00 | 0.38 | 0.00 | 71 | 1020.0 |
| 20260504195115 | 26 | 98 | 16.1 | 20.9 | 0.00 | 0.38 | 0.00 | 72 | 1020.1 |
| 20260504194846 | 26 | 81 | 12.9 | 22.5 | 0.00 | 0.38 | 0.00 | 72 | 1020.0 |
| 20260504194346 | 25 | 83 | 8.0 | 22.5 | 0.00 | 0.38 | 0.00 | 72 | 1020.1 |
| 20260504193614 | 25 | 89 | 12.9 | 22.5 | 0.00 | 0.38 | 0.00 | 72 | 1020.1 |
| 20260504193114 | 25 | 77 | 1.6 | 24.1 | 0.00 | 0.38 | 0.00 | 73 | 1019.9 |
| 20260504192615 | 25 | 66 | 6.4 | 25.7 | 0.00 | 0.38 | 0.00 | 72 | 1020.2 |
| 20260504192116 | 25 | 109 | 1.6 | 25.7 | 0.00 | 0.38 | 0.00 | 74 | 1020.3 |
| 20260504191615 | 25 | 98 | 9.7 | 22.5 | 0.00 | 0.38 | 0.00 | 73 | 1020.3 |
| 20260504191114 | 25 | 84 | 17.7 | 22.5 | 0.00 | 0.38 | 0.00 | 73 | 1020.0 |
| 20260504190614 | 25 | 90 | 9.7 | 20.9 | 0.00 | 0.38 | 0.00 | 75 | 1020.2 |
| 20260504190114 | 24 | 106 | 0.0 | 22.5 | 0.00 | 0.38 | 0.00 | 75 | 1020.0 |
| 20260504185615 | 25 | 41 | 11.3 | 24.1 | 0.00 | 0.38 | 0.00 | 72 | 1020.1 |
| 20260504185114 | 25 | 96 | 12.9 | 24.1 | 0.00 | 0.38 | 0.00 | 73 | 1020.1 |
| 20260504184846 | 25 | 70 | 11.3 | 22.5 | 0.00 | 0.38 | 0.00 | 75 | 1020.0 |
| 20260504184115 | 25 | 116 | 6.4 | 24.1 | 0.00 | 0.38 | 0.00 | 73 | 1020.0 |
| 20260504183616 | 25 | 49 | 17.7 | 24.1 | 0.00 | 0.38 | 0.00 | 72 | 1019.9 |
| 20260504183115 | 25 | 111 | 6.4 | 22.5 | 0.00 | 0.38 | 0.00 | 74 | 1020.1 |
| 20260504182615 | 25 | 81 | 17.7 | 25.7 | 0.00 | 0.38 | 0.00 | 74 | 1020.1 |
| 20260504182115 | 24 | 84 | 9.7 | 25.7 | 0.00 | 0.38 | 0.00 | 72 | 1020.1 |
| 20260504181615 | 25 | 90 | 6.4 | 20.9 | 0.00 | 0.38 | 0.00 | 73 | 1019.9 |
| 20260504181347 | 25 | 107 | 8.0 | 17.7 | 0.00 | 0.38 | 0.00 | 73 | 1019.8 |
| 20260504180614 | 24 | 109 | 8.0 | 22.5 | 0.00 | 0.38 | 0.00 | 74 | 1020.0 |
| 20260504180114 | 24 | 94 | 11.3 | 22.5 | 0.00 | 0.38 | 0.00 | 73 | 1020.0 |
| 20260504175614 | 24 | 107 | 9.7 | 20.9 | 0.00 | 0.38 | 0.00 | 76 | 1019.7 |
| 20260504175115 | 24 | 75 | 4.8 | 20.9 | 0.00 | 0.38 | 0.00 | 76 | 1019.8 |
| 20260504174615 | 24 | 67 | 12.9 | 20.9 | 0.00 | 0.38 | 0.00 | 75 | 1019.8 |
| 20260504174115 | 24 | 75 | 8.0 | 17.7 | 0.00 | 0.38 | 0.00 | 74 | 1020.0 |
| 20260504173615 | 24 | 73 | 9.7 | 20.9 | 0.00 | 0.38 | 0.00 | 74 | 1020.1 |
| 20260504173114 | 23 | 64 | 11.3 | 20.9 | 0.00 | 0.38 | 0.00 | 74 | 1019.9 |
| 20260504172848 | 23 | 93 | 9.7 | 24.1 | 0.00 | 0.38 | 0.00 | 75 | 1020.2 |
| 20260504172114 | 23 | 78 | 6.4 | 24.1 | 0.00 | 0.38 | 0.00 | 75 | 1019.7 |
| 20260504171615 | 23 | 38 | 11.3 | 17.7 | 0.00 | 0.38 | 0.00 | 77 | 1019.7 |
| 20260504171346 | 23 | 58 | 12.9 | 17.7 | 0.00 | 0.38 | 0.00 | 77 | 1019.6 |
| 20260504170615 | 23 | 95 | 6.4 | 16.1 | 0.00 | 0.38 | 0.00 | 76 | 1019.7 |
| 20260504170115 | 23 | 120 | 6.4 | 22.5 | 0.00 | 0.38 | 0.00 | 76 | 1019.7 |
| 20260504160115 | 22 | 104 | 3.2 | 20.9 | 0.00 | 0.38 | 0.00 | 80 | 1019.3 |
| 20260504151104 | 22 | 93 | 4.8 | 16.1 | 0.00 | 0.38 | 0.00 | 80 | 1018.7 |
| 20260504150608 | 22 | 104 | 0.0 | 16.1 | 0.00 | 0.38 | 0.00 | 82 | 1018.5 |
| 20260504150602 | 22 | 103 | 8.0 | 16.1 | 0.00 | 0.38 | 0.00 | 81 | 1019.0 |
| 20260504141038 | 22 | 75 | 8.0 | 20.9 | 0.00 | 0.38 | 0.00 | 81 | 1018.3 |
| 20260504140538 | 22 | 91 | 6.4 | 20.9 | 0.00 | 0.38 | 0.00 | 81 | 1018.3 |
| 20260504130527 | 22 | 143 | 8.0 | 17.7 | 0.00 | 0.38 | 0.00 | 81 | 1018.1 |
| 20260504120315 | 22 | 96 | 12.9 | 22.5 | 0.00 | 0.38 | 0.00 | 87 | 1018.7 |
| 20260504110523 | 22 | 105 | 16.1 | 22.5 | 0.00 | 0.38 | 0.00 | 85 | 1019.2 |
| 20260504100252 | 23 | 67 | 12.9 | 24.1 | 0.00 | 0.38 | 0.00 | 79 | 1019.7 |
| 20260504081727 | 23 | 85 | 11.3 | 25.7 | 0.00 | 0.38 | 0.38 | 78 | 1020.2 |
| 20260504081228 | 23 | 112 | 11.3 | 30.6 | 0.00 | 0.38 | 0.38 | 77 | 1020.0 |
| 20260504080728 | 23 | 99 | 17.7 | 30.6 | 0.00 | 0.38 | 0.38 | 78 | 1020.0 |
| 20260504080228 | 23 | 73 | 9.7 | 30.6 | 0.00 | 0.38 | 0.38 | 77 | 1020.0 |
| 20260504070229 | 23 | 163 | 8.0 | 30.6 | 0.00 | 0.38 | 0.38 | 79 | 1019.5 |